| time (UTC) | temp F | wind direction | speed MPH | gust MPH | rain 1hr in | rain 24hr in | rain mn in | humidity % | barometer mb |
| 20260510202502 | 64 | 289 | 1.0 | 5.0 | 0.00 | 0.00 | 0.00 | 33 | 1020.5 |
| 20260510202002 | 64 | 326 | 5.0 | 11.0 | 0.00 | 0.00 | 0.00 | 32 | 1020.7 |
| 20260510201501 | 64 | 336 | 3.0 | 11.0 | 0.00 | 0.00 | 0.00 | 33 | 1020.8 |
| 20260510201002 | 64 | 299 | 6.0 | 9.0 | 0.00 | 0.00 | 0.00 | 35 | 1020.9 |
| 20260510200502 | 64 | 271 | 8.0 | 11.0 | 0.00 | 0.00 | 0.00 | 32 | 1020.9 |
| 20260510200002 | 66 | 291 | 8.0 | 10.0 | 0.00 | 0.00 | 0.00 | 31 | 1020.6 |
| 20260510195501 | 64 | 342 | 4.0 | 10.0 | 0.00 | 0.00 | 0.00 | 37 | 1020.6 |
| 20260510195002 | 64 | 320 | 7.0 | 13.0 | 0.00 | 0.00 | 0.00 | 34 | 1020.5 |
| 20260510194502 | 65 | 292 | 3.0 | 6.0 | 0.00 | 0.00 | 0.00 | 34 | 1020.8 |
| 20260510194001 | 65 | 288 | 4.0 | 10.0 | 0.00 | 0.00 | 0.00 | 40 | 1020.6 |
| 20260510193502 | 63 | 322 | 4.0 | 5.0 | 0.00 | 0.00 | 0.00 | 36 | 1020.7 |
| 20260510193002 | 64 | 267 | 5.0 | 7.0 | 0.00 | 0.00 | 0.00 | 35 | 1020.7 |
| 20260510192502 | 65 | 299 | 6.0 | 11.0 | 0.00 | 0.00 | 0.00 | 34 | 1020.7 |
| 20260510192001 | 64 | 309 | 9.0 | 12.0 | 0.00 | 0.00 | 0.00 | 35 | 1020.5 |
| 20260510191502 | 65 | 15 | 6.0 | 13.0 | 0.00 | 0.00 | 0.00 | 36 | 1020.5 |
| 20260510191002 | 64 | 321 | 2.0 | 5.0 | 0.00 | 0.00 | 0.00 | 40 | 1020.8 |
| 20260510190501 | 63 | 324 | 7.0 | 9.0 | 0.00 | 0.00 | 0.00 | 35 | 1020.7 |
| 20260510190002 | 64 | 346 | 6.0 | 9.0 | 0.00 | 0.00 | 0.00 | 35 | 1020.5 |
| 20260510185502 | 64 | 317 | 2.0 | 10.0 | 0.00 | 0.00 | 0.00 | 37 | 1020.8 |
| 20260510185002 | 63 | 289 | 2.0 | 3.0 | 0.00 | 0.00 | 0.00 | 46 | 1020.7 |
| 20260510184502 | 63 | 292 | 2.0 | 5.0 | 0.00 | 0.00 | 0.00 | 40 | 1020.8 |
| 20260510184002 | 63 | 264 | 4.0 | 13.0 | 0.00 | 0.00 | 0.00 | 37 | 1020.7 |
| 20260510183502 | 63 | 268 | 7.0 | 10.0 | 0.00 | 0.00 | 0.00 | 34 | 1020.8 |
| 20260510183003 | 63 | 269 | 7.0 | 13.0 | 0.00 | 0.00 | 0.00 | 33 | 1020.6 |
| 20260510182502 | 62 | 272 | 4.0 | 9.0 | 0.00 | 0.00 | 0.00 | 37 | 1020.8 |
| 20260510182002 | 64 | 289 | 2.0 | 4.0 | 0.00 | 0.00 | 0.00 | 39 | 1020.7 |
| 20260510181502 | 63 | 336 | 3.0 | 9.0 | 0.00 | 0.00 | 0.00 | 35 | 1020.8 |
| 20260510181002 | 64 | 299 | 5.0 | 6.0 | 0.00 | 0.00 | 0.00 | 34 | 1020.9 |
| 20260510180502 | 63 | 304 | 4.0 | 10.0 | 0.00 | 0.00 | 0.00 | 36 | 1021.0 |
| 20260510180002 | 62 | 315 | 4.0 | 11.0 | 0.00 | 0.00 | 0.00 | 35 | 1020.8 |
| 20260510175502 | 63 | 312 | 6.0 | 11.0 | 0.00 | 0.00 | 0.00 | 36 | 1020.9 |
| 20260510175002 | 63 | 293 | 3.0 | 5.0 | 0.00 | 0.00 | 0.00 | 39 | 1020.8 |
| 20260510174502 | 63 | 314 | 4.0 | 10.0 | 0.00 | 0.00 | 0.00 | 35 | 1020.9 |
| 20260510174002 | 63 | 281 | 5.0 | 9.0 | 0.00 | 0.00 | 0.00 | 32 | 1020.7 |
| 20260510173501 | 62 | 304 | 4.0 | 6.0 | 0.00 | 0.00 | 0.00 | 38 | 1020.9 |
| 20260510173002 | 62 | 287 | 2.0 | 10.0 | 0.00 | 0.00 | 0.00 | 34 | 1020.9 |
| 20260510172502 | 61 | 288 | 5.0 | 6.0 | 0.00 | 0.00 | 0.00 | 36 | 1020.9 |
| 20260510172003 | 61 | 291 | 5.0 | 7.0 | 0.00 | 0.00 | 0.00 | 39 | 1021.2 |
| 20260510171501 | 62 | 317 | 4.0 | 7.0 | 0.00 | 0.00 | 0.00 | 34 | 1021.2 |
| 20260510171002 | 62 | 322 | 7.0 | 9.0 | 0.00 | 0.00 | 0.00 | 37 | 1021.3 |
| 20260510170502 | 61 | 322 | 4.0 | 6.0 | 0.00 | 0.00 | 0.00 | 37 | 1021.2 |
| 20260510170001 | 62 | 247 | 5.0 | 7.0 | 0.00 | 0.00 | 0.00 | 35 | 1021.2 |
| 20260510165502 | 61 | 0 | 4.0 | 10.0 | 0.00 | 0.00 | 0.00 | 37 | 1021.2 |
| 20260510165002 | 62 | 265 | 9.0 | 12.0 | 0.00 | 0.00 | 0.00 | 36 | 1021.2 |
| 20260510164502 | 62 | 314 | 3.0 | 5.0 | 0.00 | 0.00 | 0.00 | 37 | 1020.7 |
| 20260510164001 | 62 | 345 | 2.0 | 6.0 | 0.00 | 0.00 | 0.00 | 39 | 1021.1 |
| 20260510163502 | 62 | 285 | 6.0 | 9.0 | 0.00 | 0.00 | 0.00 | 39 | 1020.9 |
| 20260510163002 | 61 | 285 | 3.0 | 10.0 | 0.00 | 0.00 | 0.00 | 38 | 1021.0 |
| 20260510162501 | 61 | 245 | 3.0 | 6.0 | 0.00 | 0.00 | 0.00 | 37 | 1020.8 |
| 20260510162002 | 61 | 302 | 8.0 | 11.0 | 0.00 | 0.00 | 0.00 | 35 | 1020.7 |
| 20260510161502 | 62 | 322 | 4.0 | 10.0 | 0.00 | 0.00 | 0.00 | 40 | 1020.7 |
| 20260510161001 | 61 | 289 | 3.0 | 5.0 | 0.00 | 0.00 | 0.00 | 39 | 1020.7 |
| 20260510160502 | 62 | 286 | 4.0 | 6.0 | 0.00 | 0.00 | 0.00 | 38 | 1020.6 |
| 20260510160002 | 62 | 13 | 2.0 | 5.0 | 0.00 | 0.00 | 0.00 | 41 | 1020.2 |
| 20260510155501 | 61 | 333 | 2.0 | 7.0 | 0.00 | 0.00 | 0.00 | 46 | 1020.5 |
| 20260510155002 | 60 | 246 | 1.0 | 5.0 | 0.00 | 0.00 | 0.00 | 42 | 1020.3 |
| 20260510154502 | 60 | 309 | 3.0 | 9.0 | 0.00 | 0.00 | 0.00 | 39 | 1020.3 |
| 20260510154002 | 60 | 282 | 1.0 | 4.0 | 0.00 | 0.00 | 0.00 | 40 | 1020.2 |
| 20260510153501 | 60 | 280 | 4.0 | 6.0 | 0.00 | 0.00 | 0.00 | 45 | 1020.1 |
| 20260510153002 | 60 | 281 | 4.0 | 5.0 | 0.00 | 0.00 | 0.00 | 40 | 1020.2 |
| 20260510152502 | 60 | 28 | 3.0 | 5.0 | 0.00 | 0.00 | 0.00 | 39 | 1020.2 |
| 20260510152002 | 60 | 262 | 3.0 | 5.0 | 0.00 | 0.00 | 0.00 | 40 | 1020.4 |
| 20260510151502 | 60 | 263 | 3.0 | 4.0 | 0.00 | 0.00 | 0.00 | 42 | 1020.4 |
| 20260510151002 | 60 | 232 | 2.0 | 3.0 | 0.00 | 0.00 | 0.00 | 41 | 1020.3 |
| 20260510150503 | 59 | 262 | 2.0 | 4.0 | 0.00 | 0.00 | 0.00 | 40 | 1020.4 |
| 20260510150002 | 60 | 259 | 2.0 | 3.0 | 0.00 | 0.00 | 0.00 | 42 | 1020.4 |
| 20260510145502 | 60 | 319 | 2.0 | 3.0 | 0.00 | 0.00 | 0.00 | 42 | 1020.4 |
| 20260510145002 | 60 | 306 | 2.0 | 3.0 | 0.00 | 0.00 | 0.00 | 43 | 1020.2 |
| 20260510144501 | 59 | 305 | 2.0 | 3.0 | 0.00 | 0.00 | 0.00 | 44 | 1020.5 |
| 20260510144002 | 60 | 265 | 2.0 | 3.0 | 0.00 | 0.00 | 0.00 | 46 | 1020.5 |
| 20260510143502 | 60 | 255 | 2.0 | 4.0 | 0.00 | 0.00 | 0.00 | 42 | 1020.3 |
| 20260510143002 | 58 | 295 | 1.0 | 4.0 | 0.00 | 0.00 | 0.00 | 41 | 1020.3 |
| 20260510142501 | 58 | 269 | 1.0 | 3.0 | 0.00 | 0.00 | 0.00 | 46 | 1020.5 |
| 20260510142002 | 58 | 23 | 1.0 | 2.0 | 0.00 | 0.00 | 0.00 | 47 | 1020.5 |
| 20260510141502 | 58 | 342 | 3.0 | 3.0 | 0.00 | 0.00 | 0.00 | 43 | 1020.3 |
| 20260510141002 | 58 | 310 | 1.0 | 4.0 | 0.00 | 0.00 | 0.00 | 44 | 1020.2 |
| 20260510140502 | 57 | 310 | 1.0 | 5.0 | 0.00 | 0.00 | 0.00 | 44 | 1020.3 |
| 20260510140002 | 58 | 324 | 1.0 | 4.0 | 0.00 | 0.00 | 0.00 | 46 | 1020.3 |
| 20260510135502 | 58 | 311 | 2.0 | 3.0 | 0.00 | 0.00 | 0.00 | 46 | 1020.0 |
| 20260510135002 | 57 | 322 | 2.0 | 3.0 | 0.00 | 0.00 | 0.00 | 46 | 1020.1 |
| 20260510134501 | 56 | 311 | 1.0 | 3.0 | 0.00 | 0.00 | 0.00 | 48 | 1020.0 |
| 20260510134002 | 56 | 265 | 2.0 | 3.0 | 0.00 | 0.00 | 0.00 | 49 | 1019.8 |
| 20260510133502 | 56 | 139 | 2.0 | 4.0 | 0.00 | 0.00 | 0.00 | 51 | 1019.8 |
| 20260510133003 | 56 | 184 | 3.0 | 4.0 | 0.00 | 0.00 | 0.00 | 51 | 1019.9 |
| 20260510132502 | 56 | 239 | 2.0 | 5.0 | 0.00 | 0.00 | 0.00 | 50 | 1020.1 |
| 20260510132001 | 56 | 282 | 2.0 | 3.0 | 0.00 | 0.00 | 0.00 | 49 | 1020.0 |
| 20260510131502 | 55 | 286 | 1.0 | 3.0 | 0.00 | 0.00 | 0.00 | 53 | 1019.7 |
| 20260510131003 | 54 | 45 | 2.0 | 3.0 | 0.00 | 0.00 | 0.00 | 50 | 1019.7 |
| 20260510130501 | 54 | 67 | 2.0 | 4.0 | 0.00 | 0.00 | 0.00 | 52 | 1019.7 |
| 20260510130002 | 54 | 48 | 3.0 | 5.0 | 0.00 | 0.00 | 0.00 | 51 | 1019.8 |
| 20260510125502 | 54 | 6 | 4.0 | 5.0 | 0.00 | 0.00 | 0.00 | 53 | 1019.7 |
| 20260510125001 | 53 | 7 | 2.0 | 4.0 | 0.00 | 0.00 | 0.00 | 56 | 1019.6 |
| 20260510124502 | 53 | 293 | 1.0 | 3.0 | 0.00 | 0.00 | 0.00 | 59 | 1019.6 |
| 20260510124002 | 52 | 55 | 2.0 | 5.0 | 0.00 | 0.00 | 0.00 | 59 | 1019.5 |
| 20260510123501 | 52 | 277 | 1.0 | 5.0 | 0.00 | 0.00 | 0.00 | 61 | 1019.5 |
| 20260510123002 | 52 | 45 | 2.0 | 3.0 | 0.00 | 0.00 | 0.00 | 61 | 1019.2 |
| 20260510122502 | 51 | 294 | 2.0 | 3.0 | 0.00 | 0.00 | 0.00 | 64 | 1019.2 |
| 20260510122002 | 51 | 0 | 1.0 | 2.0 | 0.00 | 0.00 | 0.00 | 64 | 1019.3 |
| 20260510121502 | 51 | 338 | 3.0 | 4.0 | 0.00 | 0.00 | 0.00 | 64 | 1019.0 |
| 20260510121001 | 50 | 273 | 1.0 | 2.0 | 0.00 | 0.00 | 0.00 | 66 | 1019.1 |
| 20260510120502 | 49 | 295 | 0.0 | 2.0 | 0.00 | 0.00 | 0.00 | 68 | 1019.0 |
| 20260510120002 | 48 | 300 | 1.0 | 2.0 | 0.00 | 0.00 | 0.00 | 71 | 1019.0 |
| 20260510115502 | 47 | 343 | 1.0 | 2.0 | 0.00 | 0.00 | 0.00 | 71 | 1018.5 |
| 20260510115002 | 46 | 348 | 1.0 | 2.0 | 0.00 | 0.00 | 0.00 | 73 | 1018.6 |
| 20260510114502 | 45 | 303 | 1.0 | 3.0 | 0.00 | 0.00 | 0.00 | 73 | 1018.4 |
| 20260510114002 | 44 | 312 | 1.0 | 2.0 | 0.00 | 0.00 | 0.00 | 76 | 1018.6 |
| 20260510113502 | 44 | 292 | 0.0 | 2.0 | 0.00 | 0.00 | 0.00 | 75 | 1018.6 |
| 20260510113002 | 43 | 284 | 0.0 | 2.0 | 0.00 | 0.00 | 0.00 | 76 | 1018.6 |
| 20260510112502 | 43 | 298 | 1.0 | 2.0 | 0.00 | 0.00 | 0.00 | 76 | 1018.6 |
| 20260510112002 | 42 | 317 | 0.0 | 5.0 | 0.00 | 0.00 | 0.00 | 77 | 1018.2 |
| 20260510111502 | 42 | 293 | 0.0 | 0.0 | 0.00 | 0.00 | 0.00 | 78 | 1018.4 |
| 20260510111002 | 42 | 296 | 0.0 | 2.0 | 0.00 | 0.00 | 0.00 | 78 | 1018.2 |
| 20260510110502 | 41 | 296 | 0.0 | 2.0 | 0.00 | 0.00 | 0.00 | 78 | 1017.9 |
| 20260510110002 | 41 | 292 | 0.0 | 2.0 | 0.00 | 0.00 | 0.00 | 78 | 1017.8 |
| 20260510105502 | 41 | 293 | 0.0 | 2.0 | 0.00 | 0.00 | 0.00 | 78 | 1018.1 |
| 20260510105002 | 41 | 295 | 1.0 | 2.0 | 0.00 | 0.00 | 0.00 | 78 | 1017.8 |
| 20260510104501 | 41 | 291 | 0.0 | 0.0 | 0.00 | 0.00 | 0.00 | 78 | 1017.5 |
| 20260510104002 | 41 | 291 | 0.0 | 2.0 | 0.00 | 0.00 | 0.00 | 77 | 1017.6 |
| 20260510103502 | 41 | 293 | 0.0 | 0.0 | 0.00 | 0.00 | 0.00 | 77 | 1017.6 |
| 20260510103002 | 41 | 296 | 1.0 | 2.0 | 0.00 | 0.00 | 0.00 | 78 | 1017.5 |
| 20260510102002 | 40 | 292 | 0.0 | 0.0 | 0.00 | 0.00 | 0.00 | 78 | 1017.4 |
| 20260510101502 | 41 | 292 | 0.0 | 0.0 | 0.00 | 0.00 | 0.00 | 77 | 1017.4 |
| 20260510101002 | 41 | 292 | 0.0 | 0.0 | 0.00 | 0.00 | 0.00 | 76 | 1017.4 |
| 20260510100501 | 42 | 292 | 0.0 | 0.0 | 0.00 | 0.00 | 0.00 | 75 | 1017.3 |
| 20260510100002 | 42 | 292 | 0.0 | 0.0 | 0.00 | 0.00 | 0.00 | 74 | 1017.3 |
| 20260510095502 | 42 | 290 | 0.0 | 0.0 | 0.00 | 0.00 | 0.00 | 73 | 1017.1 |
| 20260510094502 | 43 | 285 | 0.0 | 0.0 | 0.00 | 0.00 | 0.00 | 72 | 1016.9 |
| 20260510094002 | 43 | 290 | 0.0 | 2.0 | 0.00 | 0.00 | 0.00 | 71 | 1016.8 |
| 20260510093501 | 44 | 293 | 0.0 | 2.0 | 0.00 | 0.00 | 0.00 | 71 | 1016.8 |
| 20260510093002 | 44 | 296 | 0.0 | 2.0 | 0.00 | 0.00 | 0.00 | 70 | 1017.0 |
| 20260510092502 | 44 | 13 | 1.0 | 2.0 | 0.00 | 0.00 | 0.00 | 70 | 1016.6 |
| 20260510092002 | 44 | 294 | 0.0 | 2.0 | 0.00 | 0.00 | 0.00 | 70 | 1016.9 |
| 20260510091502 | 44 | 287 | 0.0 | 0.0 | 0.00 | 0.00 | 0.00 | 69 | 1016.8 |
| 20260510091002 | 45 | 296 | 1.0 | 4.0 | 0.00 | 0.00 | 0.00 | 67 | 1016.6 |
| 20260510090502 | 45 | 295 | 0.0 | 2.0 | 0.00 | 0.00 | 0.00 | 67 | 1016.5 |
| 20260510090002 | 45 | 330 | 1.0 | 3.0 | 0.00 | 0.00 | 0.00 | 67 | 1016.6 |
| 20260510085502 | 45 | 31 | 2.0 | 3.0 | 0.00 | 0.00 | 0.00 | 67 | 1016.4 |
| 20260510084502 | 46 | 298 | 0.0 | 2.0 | 0.00 | 0.00 | 0.00 | 67 | 1016.5 |
| 20260510084002 | 46 | 302 | 1.0 | 3.0 | 0.00 | 0.00 | 0.00 | 66 | 1016.4 |
| 20260510083002 | 46 | 295 | 1.0 | 2.0 | 0.00 | 0.00 | 0.00 | 67 | 1016.4 |
| 20260510082502 | 46 | 292 | 0.0 | 3.0 | 0.00 | 0.00 | 0.00 | 67 | 1016.4 |
| 20260510082001 | 47 | 301 | 1.0 | 2.0 | 0.00 | 0.00 | 0.00 | 69 | 1016.3 |
| 20260510081502 | 47 | 314 | 1.0 | 2.0 | 0.00 | 0.00 | 0.00 | 69 | 1016.0 |
| 20260510081002 | 47 | 312 | 1.0 | 3.0 | 0.00 | 0.00 | 0.00 | 70 | 1016.0 |
| 20260510080502 | 47 | 41 | 2.0 | 3.0 | 0.00 | 0.00 | 0.00 | 72 | 1016.0 |
| 20260510075002 | 44 | 291 | 0.0 | 3.0 | 0.00 | 0.00 | 0.00 | 85 | 1015.8 |
| 20260510074002 | 43 | 300 | 1.0 | 3.0 | 0.00 | 0.00 | 0.00 | 89 | 1015.7 |
| 20260510073502 | 43 | 298 | 1.0 | 2.0 | 0.00 | 0.00 | 0.00 | 89 | 1015.4 |
| 20260510073001 | 43 | 295 | 0.0 | 0.0 | 0.00 | 0.00 | 0.00 | 89 | 1015.5 |
| 20260510072502 | 43 | 295 | 0.0 | 0.0 | 0.00 | 0.00 | 0.00 | 90 | 1015.3 |
| 20260510072002 | 42 | 293 | 0.0 | 0.0 | 0.00 | 0.00 | 0.00 | 91 | 1015.1 |
| 20260510071502 | 42 | 293 | 0.0 | 0.0 | 0.00 | 0.00 | 0.00 | 91 | 1014.9 |
| 20260510070502 | 42 | 293 | 0.0 | 0.0 | 0.00 | 0.00 | 0.00 | 92 | 1015.0 |
| 20260510070002 | 42 | 305 | 1.0 | 2.0 | 0.00 | 0.00 | 0.00 | 93 | 1014.8 |
| 20260510065501 | 42 | 288 | 0.0 | 0.0 | 0.00 | 0.00 | 0.00 | 93 | 1014.8 |
| 20260510065002 | 41 | 288 | 0.0 | 0.0 | 0.00 | 0.00 | 0.00 | 93 | 1014.6 |
| 20260510064502 | 41 | 288 | 0.0 | 0.0 | 0.00 | 0.00 | 0.00 | 92 | 1014.6 |
| 20260510064002 | 41 | 288 | 0.0 | 0.0 | 0.00 | 0.00 | 0.00 | 91 | 1014.6 |
| 20260510063501 | 41 | 288 | 0.0 | 0.0 | 0.00 | 0.00 | 0.00 | 90 | 1014.5 |
| 20260510063002 | 42 | 288 | 0.0 | 0.0 | 0.00 | 0.00 | 0.00 | 89 | 1014.5 |
| 20260510062502 | 42 | 288 | 0.0 | 0.0 | 0.00 | 0.00 | 0.00 | 88 | 1014.4 |
| 20260510062001 | 43 | 288 | 0.0 | 0.0 | 0.00 | 0.00 | 0.00 | 88 | 1014.7 |
| 20260510061502 | 43 | 288 | 0.0 | 0.0 | 0.00 | 0.00 | 0.00 | 87 | 1014.5 |
| 20260510061002 | 43 | 288 | 0.0 | 0.0 | 0.00 | 0.00 | 0.00 | 87 | 1014.4 |
| 20260510060501 | 43 | 288 | 0.0 | 0.0 | 0.00 | 0.00 | 0.00 | 86 | 1014.4 |
| 20260510060002 | 44 | 288 | 0.0 | 0.0 | 0.00 | 0.00 | 0.00 | 86 | 1014.3 |
| 20260510055502 | 43 | 288 | 0.0 | 0.0 | 0.00 | 0.00 | 0.00 | 86 | 1014.2 |
| 20260510055002 | 44 | 288 | 0.0 | 0.0 | 0.00 | 0.00 | 0.00 | 86 | 1014.1 |
| 20260510054501 | 44 | 288 | 0.0 | 0.0 | 0.00 | 0.00 | 0.00 | 85 | 1014.1 |
| 20260510054002 | 44 | 288 | 0.0 | 0.0 | 0.00 | 0.00 | 0.00 | 84 | 1014.1 |
| 20260510053502 | 44 | 288 | 0.0 | 0.0 | 0.00 | 0.00 | 0.00 | 84 | 1013.8 |
| 20260510053001 | 44 | 288 | 0.0 | 0.0 | 0.00 | 0.00 | 0.00 | 83 | 1014.0 |
| 20260510052002 | 46 | 288 | 0.0 | 0.0 | 0.00 | 0.00 | 0.00 | 81 | 1013.7 |
| 20260510051502 | 46 | 288 | 0.0 | 0.0 | 0.00 | 0.00 | 0.00 | 80 | 1013.6 |
| 20260510051001 | 45 | 288 | 0.0 | 0.0 | 0.00 | 0.00 | 0.00 | 80 | 1013.8 |
| 20260510050502 | 46 | 287 | 0.0 | 0.0 | 0.00 | 0.00 | 0.00 | 79 | 1013.6 |
| 20260510050002 | 46 | 287 | 0.0 | 0.0 | 0.00 | 0.00 | 0.00 | 79 | 1013.5 |
| 20260510045501 | 46 | 287 | 1.0 | 2.0 | 0.00 | 0.00 | 0.00 | 78 | 1013.6 |
| 20260510045002 | 46 | 288 | 0.0 | 0.0 | 0.00 | 0.00 | 0.00 | 78 | 1013.4 |
| 20260510044502 | 47 | 288 | 0.0 | 0.0 | 0.00 | 0.00 | 0.00 | 78 | 1013.4 |
| 20260510044001 | 47 | 288 | 0.0 | 0.0 | 0.00 | 0.00 | 0.00 | 78 | 1013.1 |
| 20260510043502 | 47 | 288 | 0.0 | 0.0 | 0.00 | 0.00 | 0.00 | 78 | 1013.2 |
| 20260510043002 | 47 | 288 | 0.0 | 0.0 | 0.00 | 0.00 | 0.00 | 77 | 1012.8 |
| 20260510042002 | 47 | 288 | 0.0 | 0.0 | 0.00 | 0.00 | 0.00 | 75 | 1012.9 |
| 20260510041502 | 48 | 288 | 0.0 | 0.0 | 0.00 | 0.00 | 0.00 | 74 | 1013.0 |
| 20260510041002 | 48 | 288 | 0.0 | 0.0 | 0.00 | 0.00 | 0.00 | 72 | 1012.9 |
| 20260510040502 | 49 | 288 | 0.0 | 0.0 | 0.00 | 0.00 | 0.00 | 71 | 1012.8 |
| 20260510040002 | 50 | 288 | 0.0 | 0.0 | 0.00 | 0.00 | 0.00 | 70 | 1012.8 |
| 20260510035502 | 50 | 290 | 0.0 | 0.0 | 0.00 | 0.00 | 0.00 | 69 | 1012.5 |
| 20260510035002 | 50 | 294 | 0.0 | 2.0 | 0.00 | 0.00 | 0.00 | 68 | 1012.5 |
| 20260510034502 | 51 | 294 | 0.0 | 2.0 | 0.00 | 0.00 | 0.00 | 67 | 1012.1 |
| 20260510034002 | 51 | 293 | 0.0 | 0.0 | 0.00 | 0.00 | 0.00 | 66 | 1012.1 |
| 20260510033502 | 51 | 291 | 0.0 | 2.0 | 0.00 | 0.00 | 0.00 | 66 | 1012.1 |
| 20260510033002 | 52 | 303 | 0.0 | 0.0 | 0.00 | 0.00 | 0.00 | 65 | 1011.9 |
| 20260510032502 | 52 | 295 | 2.0 | 3.0 | 0.00 | 0.00 | 0.00 | 64 | 1012.1 |
| 20260510032002 | 52 | 291 | 0.0 | 2.0 | 0.00 | 0.00 | 0.00 | 64 | 1012.2 |
| 20260510031502 | 53 | 295 | 0.0 | 2.0 | 0.00 | 0.00 | 0.00 | 63 | 1012.1 |
| 20260510031002 | 53 | 299 | 1.0 | 2.0 | 0.00 | 0.00 | 0.00 | 61 | 1012.1 |
| 20260510025001 | 54 | 317 | 1.0 | 3.0 | 0.00 | 0.00 | 0.00 | 58 | 1011.8 |
| 20260510024502 | 54 | 356 | 1.0 | 3.0 | 0.00 | 0.00 | 0.00 | 57 | 1011.8 |
| 20260510024002 | 55 | 341 | 1.0 | 2.0 | 0.00 | 0.00 | 0.00 | 57 | 1011.9 |
| 20260510023502 | 55 | 348 | 2.0 | 5.0 | 0.00 | 0.00 | 0.00 | 57 | 1011.5 |
| 20260510023001 | 55 | 326 | 2.0 | 3.0 | 0.00 | 0.00 | 0.00 | 55 | 1011.6 |
| 20260510022502 | 56 | 342 | 2.0 | 3.0 | 0.00 | 0.00 | 0.00 | 55 | 1011.5 |
| 20260510022002 | 56 | 358 | 2.0 | 5.0 | 0.00 | 0.00 | 0.00 | 55 | 1011.5 |
| 20260510021502 | 56 | 6 | 2.0 | 6.0 | 0.00 | 0.00 | 0.00 | 55 | 1011.4 |
| 20260510020502 | 56 | 334 | 2.0 | 4.0 | 0.00 | 0.00 | 0.00 | 55 | 1011.1 |
| 20260510015502 | 57 | 298 | 2.0 | 4.0 | 0.00 | 0.00 | 0.00 | 52 | 1010.6 |
| 20260510015002 | 58 | 41 | 3.0 | 4.0 | 0.00 | 0.00 | 0.00 | 52 | 1010.7 |
| 20260510014502 | 58 | 337 | 2.0 | 6.0 | 0.00 | 0.00 | 0.00 | 52 | 1010.4 |
| 20260510014002 | 59 | 88 | 4.0 | 6.0 | 0.00 | 0.00 | 0.00 | 52 | 1010.3 |
| 20260510013502 | 60 | 331 | 3.0 | 4.0 | 0.00 | 0.00 | 0.00 | 52 | 1010.0 |
| 20260510013001 | 61 | 256 | 1.0 | 4.0 | 0.00 | 0.00 | 0.00 | 51 | 1010.3 |
| 20260510012502 | 64 | 37 | 3.0 | 5.0 | 0.00 | 0.00 | 0.00 | 54 | 1009.7 |
| 20260510012002 | 65 | 259 | 3.0 | 6.0 | 0.00 | 0.00 | 0.00 | 54 | 1009.3 |
| 20260510011501 | 65 | 262 | 2.0 | 6.0 | 0.00 | 0.00 | 0.00 | 53 | 1009.3 |
| 20260510011002 | 65 | 292 | 4.0 | 5.0 | 0.00 | 0.00 | 0.00 | 52 | 1009.2 |
| 20260510010502 | 66 | 295 | 3.0 | 7.0 | 0.00 | 0.00 | 0.00 | 51 | 1009.1 |
| 20260510010002 | 65 | 311 | 4.0 | 7.0 | 0.00 | 0.00 | 0.00 | 52 | 1008.8 |
| 20260510005502 | 66 | 269 | 2.0 | 6.0 | 0.00 | 0.00 | 0.00 | 52 | 1008.6 |
| 20260510004502 | 66 | 277 | 3.0 | 5.0 | 0.00 | 0.00 | 0.00 | 50 | 1008.7 |
| 20260510003502 | 67 | 296 | 2.0 | 10.0 | 0.00 | 0.00 | 0.00 | 49 | 1008.4 |
| 20260510003003 | 67 | 293 | 3.0 | 5.0 | 0.00 | 0.00 | 0.00 | 49 | 1008.1 |
| 20260510002502 | 67 | 287 | 2.0 | 9.0 | 0.00 | 0.00 | 0.00 | 48 | 1008.2 |
| 20260510002001 | 68 | 267 | 3.0 | 7.0 | 0.00 | 0.00 | 0.00 | 48 | 1008.3 |
| 20260510001502 | 68 | 326 | 7.0 | 10.0 | 0.00 | 0.00 | 0.00 | 46 | 1008.1 |
| 20260510000502 | 68 | 278 | 5.0 | 10.0 | 0.00 | 0.00 | 0.00 | 46 | 1008.1 |
| 20260510000002 | 68 | 207 | 6.0 | 10.0 | 0.00 | 0.00 | 0.00 | 46 | 1007.9 |
| 20260509235501 | 69 | 240 | 8.0 | 12.0 | 0.00 | 0.00 | 0.00 | 44 | 1007.9 |
| 20260509235003 | 70 | 307 | 8.0 | 13.0 | 0.00 | 0.00 | 0.00 | 44 | 1008.0 |
| 20260509234501 | 70 | 263 | 7.0 | 13.0 | 0.00 | 0.00 | 0.00 | 44 | 1007.9 |
| 20260509234002 | 70 | 274 | 6.0 | 11.0 | 0.00 | 0.00 | 0.00 | 43 | 1007.9 |
| 20260509233502 | 70 | 343 | 6.0 | 9.0 | 0.00 | 0.00 | 0.00 | 44 | 1007.8 |
| 20260509233002 | 70 | 263 | 7.0 | 15.0 | 0.00 | 0.00 | 0.00 | 44 | 1007.8 |
| 20260509232502 | 70 | 277 | 7.0 | 11.0 | 0.00 | 0.00 | 0.00 | 42 | 1007.8 |
| 20260509232002 | 70 | 260 | 7.0 | 15.0 | 0.00 | 0.00 | 0.00 | 43 | 1007.6 |
| 20260509231502 | 69 | 311 | 4.0 | 15.0 | 0.00 | 0.00 | 0.00 | 44 | 1007.5 |
| 20260509231001 | 70 | 288 | 4.0 | 9.0 | 0.00 | 0.00 | 0.00 | 43 | 1007.5 |
| 20260509230003 | 71 | 296 | 6.0 | 14.0 | 0.00 | 0.00 | 0.00 | 40 | 1007.4 |
| 20260509225501 | 72 | 241 | 6.0 | 14.0 | 0.00 | 0.00 | 0.00 | 40 | 1007.5 |
| 20260509224502 | 72 | 328 | 8.0 | 14.0 | 0.00 | 0.00 | 0.00 | 39 | 1007.2 |
| 20260509224002 | 72 | 265 | 7.0 | 14.0 | 0.00 | 0.00 | 0.00 | 39 | 1007.3 |
| 20260509223502 | 71 | 280 | 5.0 | 12.0 | 0.00 | 0.00 | 0.00 | 39 | 1007.2 |
| 20260509223002 | 71 | 259 | 3.0 | 12.0 | 0.00 | 0.00 | 0.00 | 40 | 1007.0 |
| 20260509222001 | 70 | 285 | 6.0 | 12.0 | 0.00 | 0.00 | 0.00 | 41 | 1007.1 |
| 20260509221502 | 70 | 292 | 11.0 | 14.0 | 0.00 | 0.00 | 0.00 | 39 | 1007.0 |
| 20260509221002 | 71 | 321 | 5.0 | 11.0 | 0.00 | 0.00 | 0.00 | 39 | 1006.9 |
| 20260509220502 | 71 | 274 | 4.0 | 16.0 | 0.00 | 0.00 | 0.00 | 39 | 1006.8 |
| 20260509220002 | 71 | 312 | 10.0 | 18.0 | 0.00 | 0.00 | 0.00 | 39 | 1006.5 |
| 20260509215502 | 71 | 316 | 7.0 | 15.0 | 0.00 | 0.00 | 0.00 | 38 | 1006.9 |
| 20260509215002 | 71 | 276 | 8.0 | 15.0 | 0.00 | 0.00 | 0.00 | 38 | 1007.0 |
| 20260509214002 | 71 | 237 | 9.0 | 18.0 | 0.00 | 0.00 | 0.00 | 39 | 1006.7 |
| 20260509213502 | 71 | 310 | 17.0 | 24.0 | 0.00 | 0.00 | 0.00 | 37 | 1006.6 |
| 20260509213002 | 72 | 236 | 9.0 | 15.0 | 0.00 | 0.00 | 0.00 | 38 | 1006.6 |
| 20260509212501 | 71 | 234 | 7.0 | 19.0 | 0.00 | 0.00 | 0.00 | 37 | 1006.5 |
| 20260509212002 | 71 | 284 | 5.0 | 13.0 | 0.00 | 0.00 | 0.00 | 36 | 1006.5 |
| 20260509211502 | 71 | 297 | 3.0 | 14.0 | 0.00 | 0.00 | 0.00 | 36 | 1006.5 |
| 20260509211001 | 71 | 257 | 6.0 | 12.0 | 0.00 | 0.00 | 0.00 | 35 | 1006.4 |
| 20260509210502 | 71 | 313 | 5.0 | 14.0 | 0.00 | 0.00 | 0.00 | 37 | 1006.3 |
| 20260509210002 | 71 | 300 | 6.0 | 14.0 | 0.00 | 0.00 | 0.00 | 37 | 1006.3 |
| 20260509205502 | 72 | 260 | 6.0 | 11.0 | 0.00 | 0.00 | 0.00 | 38 | 1006.2 |
| 20260509205001 | 72 | 268 | 8.0 | 14.0 | 0.00 | 0.00 | 0.00 | 36 | 1006.4 |
| 20260509204002 | 72 | 265 | 7.0 | 13.0 | 0.00 | 0.00 | 0.00 | 39 | 1006.5 |
| 20260509203002 | 72 | 342 | 2.0 | 13.0 | 0.00 | 0.00 | 0.00 | 38 | 1006.4 |